Location: Bakhuizen
(52.8696°N, 5.4575°E)
Time: 20:39:09
(UTC+00:00)

MTI - Pass Details

Date: 11 May 2021
Orbit: 381 x 388 km, 97.5° (Epoch: 21 June)

Event Time Altitude Azimuth Distance (km) Brightness Sun altitude
Rises 23:18:05 0° 14° (NNE) 2,275 8.8 -18.9°
Reaches altitude 10° 23:20:03 10° 15° (NNE) 1,416 7.5 -18.9°
Maximum altitude 23:23:05 86° 105° (ESE) 391 3.4 -19.0°
Enters shadow 23:23:05 86° 112° (ESE) 391 3.4 -19.0°
